Home   Weather   Haines   Past weeks
Flag for USA

Past Weather in Haines, Alaska, USA — Yesterday and Last 2 Weeks

Now
63 °F

Sunny.


Feels Like: 63 °F
Forecast: 67 / 53 °F
Wind: 5 mph from East

Location: Haines Airport

Current Time: Jun 24, 2019 at 7:47:33 pm

Latest Report: Jun 24, 2019 at 6:54 pm


Visibility: 10 mi

Pressure: 29.98 "Hg

Humidity: 63%

Dew Point: 50 °F

Location of HainesLocation

Past Weather in Haines — Graph

°F

Haines Temperature Yesterday

Maximum temperature yesterday: 61 °F (at 1:54 pm)
Minimum temperature yesterday: 53 °F (at 1:54 am)
Average temperature yesterday: 57 °F

High & Low Weather Summary for the Past Weeks

 TemperatureHumidityPressure
High72 °F (Jun 21, 4:54 pm)96% (Jun 16, 12:54 am)30.31 "Hg (Jun 16, 12:54 am)
Low48 °F (Jun 14, 4:54 am)40% (Jun 21, 6:54 pm)29.74 "Hg (Jun 17, 6:10 pm)
Average57 °F80%30.01 "Hg
* Reported Jun 9 5:54 pm — Jun 24 5:54 pm, Haines. Weather by CustomWeather, © 2019

Note: Actual official high and low records may vary slightly from our data, if they occured in-between our weather recording intervals... More about our weather records

Advertising

Haines Weather History for the Previous 24 Hours

Scroll right to see more
 ConditionsComfort  
Time TempWeatherWind HumidityBarometerVisibility
5:54 pm
Mon, Jun 24
64 °FSunny.7 mph65%29.98 "Hg10 mi
4:54 pm68 °FSunny.8 mph55%29.98 "Hg10 mi
3:54 pm66 °FSunny.8 mph59%29.98 "Hg10 mi
2:54 pm65 °FSunny.9 mph63%30.00 "Hg10 mi
1:54 pm64 °FPassing clouds.9 mph65%30.01 "Hg10 mi
12:54 pm63 °FPartly sunny.7 mph68%30.02 "Hg10 mi
11:54 am60 °FMostly cloudy.5 mph72%30.04 "Hg10 mi
10:54 am60 °FOvercast.3 mph78%30.05 "Hg10 mi
9:54 am57 °FMostly cloudy.No wind83%30.05 "Hg10 mi
8:54 am57 °FOvercast.3 mph81%30.05 "Hg10 mi
7:54 am57 °FOvercast.No wind87%30.05 "Hg10 mi
6:54 am55 °FOvercast.No wind93%30.05 "Hg10 mi
5:54 am54 °FMore clouds than sun.5 mph90%30.05 "Hg10 mi
4:54 am54 °FOvercast.No wind90%30.05 "Hg10 mi
3:54 am54 °FOvercast.No wind90%30.04 "Hg10 mi
3:13 am53 °FOvercast.3 mph93%30.04 "Hg10 mi
2:54 am54 °FOvercast.No wind90%30.05 "Hg10 mi
1:54 am54 °FMostly cloudy.No wind90%30.04 "Hg10 mi
12:54 am54 °FOvercast.5 mph90%30.03 "Hg10 mi
11:54 pm
Sun, Jun 23
53 °FOvercast.No wind93%30.02 "Hg10 mi
10:54 pm55 °FLight rain. Overcast.3 mph87%30.01 "Hg10 mi
9:54 pm55 °FOvercast.5 mph83%30.00 "Hg10 mi
8:54 pm56 °FOvercast.3 mph84%30.00 "Hg10 mi
7:54 pm59 °FOvercast.3 mph75%29.99 "Hg10 mi
Weather by CustomWeather, © 2019

See weather overview